TimeEST,TemperatureF,Dew PointF,Humidity,Sea Level PressureIn,VisibilityMPH,Wind Direction,Wind SpeedMPH,Gust SpeedMPH,PrecipitationIn,Events,Conditions,WindDirDegrees,DateUTC
12:53 AM,46.9,37.9,71,30.19,10.0,SSW,5.8,-,N/A,,Overcast,210,2013-01-24 05:53:00
1:14 AM,48.2,37.4,66,30.18,10.0,WSW,4.6,-,N/A,,Overcast,240,2013-01-24 06:14:00
1:53 AM,50.0,39.9,68,30.19,10.0,West,6.9,-,N/A,,Overcast,260,2013-01-24 06:53:00
2:53 AM,50.0,39.9,68,30.19,10.0,West,6.9,-,N/A,,Mostly Cloudy,280,2013-01-24 07:53:00
3:08 AM,50.0,39.2,66,30.19,10.0,WNW,5.8,-,N/A,,Mostly Cloudy,290,2013-01-24 08:08:00
3:53 AM,48.0,37.9,68,30.19,10.0,NW,9.2,-,N/A,,Mostly Cloudy,310,2013-01-24 08:53:00
4:53 AM,46.9,36.0,66,30.19,10.0,NW,10.4,-,N/A,,Scattered Clouds,310,2013-01-24 09:53:00
5:53 AM,44.1,33.1,65,30.22,10.0,NNW,15.0,-,N/A,,Scattered Clouds,330,2013-01-24 10:53:00
6:53 AM,41.0,30.0,65,30.25,10.0,North,11.5,-,N/A,,Scattered Clouds,10,2013-01-24 11:53:00
7:53 AM,39.0,28.0,65,30.29,10.0,North,10.4,-,N/A,,Scattered Clouds,360,2013-01-24 12:53:00
8:53 AM,37.9,19.0,47,30.34,10.0,North,13.8,21.9,N/A,,Scattered Clouds,360,2013-01-24 13:53:00
9:53 AM,39.0,21.0,49,30.37,10.0,North,9.2,-,N/A,,Mostly Cloudy,350,2013-01-24 14:53:00
10:53 AM,41.0,18.0,40,30.38,10.0,North,13.8,19.6,N/A,,Mostly Cloudy,360,2013-01-24 15:53:00
11:53 AM,42.1,19.0,40,30.39,10.0,NNE,12.7,18.4,N/A,,Mostly Cloudy,30,2013-01-24 16:53:00
12:53 PM,42.1,19.0,40,30.37,10.0,NNE,13.8,18.4,N/A,,Mostly Cloudy,30,2013-01-24 17:53:00
1:53 PM,42.1,17.1,37,30.36,10.0,NNE,13.8,21.9,N/A,,Mostly Cloudy,20,2013-01-24 18:53:00
2:53 PM,42.1,12.9,31,30.35,10.0,NNE,11.5,-,N/A,,Mostly Cloudy,30,2013-01-24 19:53:00
3:53 PM,42.1,12.0,29,30.37,10.0,NE,13.8,-,N/A,,Mostly Cloudy,40,2013-01-24 20:53:00
4:53 PM,39.9,9.0,28,30.38,10.0,NE,9.2,-,N/A,,Mostly Cloudy,40,2013-01-24 21:53:00
5:53 PM,37.0,5.0,26,30.38,10.0,NE,11.5,-,N/A,,Mostly Cloudy,40,2013-01-24 22:53:00
6:53 PM,36.0,9.0,33,30.40,10.0,NNE,8.1,-,N/A,,Mostly Cloudy,30,2013-01-24 23:53:00
7:53 PM,34.0,9.0,35,30.40,10.0,NE,4.6,-,N/A,,Mostly Cloudy,50,2013-01-25 00:53:00
8:53 PM,33.1,9.0,37,30.40,10.0,NNE,4.6,-,N/A,,Mostly Cloudy,30,2013-01-25 01:53:00
9:53 PM,32.0,8.1,37,30.39,10.0,NNE,3.5,-,N/A,,Mostly Cloudy,30,2013-01-25 02:53:00
10:53 PM,32.0,9.0,38,30.39,10.0,North,4.6,-,N/A,,Mostly Cloudy,350,2013-01-25 03:53:00
11:53 PM,32.0,7.0,35,30.40,10.0,Variable,3.5,-,N/A,,Mostly Cloudy,0,2013-01-25 04:53:00